Weather in Bugryshikha

Russia / Altai Krai     51°16′48″N   82°47′27″E
temp.,
°C
wind,
m/s
gust,
m/s
humid.,
%
clouds,
%
prec.,
mm/h
press.,
hPa
HPBL,
m
21 june, mon
mon2101:00+5s39795 0.0 1012253
04:00+9sse4145343 0.0 1008995
07:00+12s71844100 0.0 10051552
10:00+6s81996100 5.3 10091227
13:00+8s61690100 8.8 10091133
16:00+8s5158789 0.6 10091063
19:00+10sse41274100 0.7 1008730
22:00+7sse31098100 2.0 1006414
22 june, tue
tue2201:00+8se2699100 6.0 1004283
04:00+7sw41099100 3.5 1007641
07:00+7sw4109737 6.1 1009813
10:00+7sw51196100 0.9 10101144
13:00+10sw61184100 2.1 10111248
16:00+13wsw71050100 0.2 10111732
19:00+10wsw61084100 0.5 10141176
22:00+7ssw2798100 0.7 1016417
23 june, wed
wed2301:00+7ssw2499100 1.2 1017166
04:00+7ssw2499100 1.1 1017147
07:00+7ssw2399100 3.1 1017149
10:00+9ssw369582 1.1 1017503
13:00+11ssw4678100 2.5 10151165
16:00+14ssw576054 0.8 10131469
19:00+14sse3956100 1.3 10111410
22:00+10se2575100 0.0 1009142
24 june, thu
thu2401:00+9sse31197100 1.8 1005887
04:00+9s71995100 8.5 10021607
07:00+6ssw71498100 12.9 10051019
10:00+7sw61398100 0.7 10081152
13:00+10sw612877 1.3 10091262
16:00+12sw7116095 1.1 10091633
19:00+9sw5119258 2.9 1011855
22:00+6ssw3109531 0.5 1013377
25 june, fri
fri2501:00+5ssw3897100 0.6 1013299
04:00+6s3598100 0.2 1013188
07:00+7ssw2497100 0.3 1013127
10:00+9ssw2492100 0.1 1013254
13:00+14wsw345269 0.3 10111760
16:00+15wnw444996 0.3 10111820
19:00+12wnw24915 1.6 1013553
22:00+7nne119923 0.9 101524